STARLINK-34632, 64792

Orbit data source: Space-Track

STARLINK-34632, 64792 is a payload satellite owned by SpaceX/Seattle (US) in LEO that was launched on Wed, 16 Jul 2025 UTC via an FALCON 9 launch vehicle from the Air Force Western Test Range (AFWTR). Payload-class satellites include a variety of spacecraft equipped with specific instruments for various scientific and technological missions. These include communications satellites like Starlink; space stations such as the ISS; scientific satellites like the Hubble; Earth observation satellites from companies like Planet Labs, Umbra, and HawkEye 360; GPS; miniature CubeSats for education and research; and military/defense satellites.

Loading next visibility...
Identifier
64792, 2025-150C
Orbit
LEO
Country
Flag of USUS
Related business
Manufacturer
SpaceX/Seattle
Mission
Operational Commercial Communications
Bus & Motor
STARLINK V2MO, Unknown motor
Mass
575 kg wet, ~530 kg dry
Launch date (UTC)
2025-07-16 (11 months ago)
Launch vehicle
FALCON 9
Launch site
Air Force Western Test Range (AFWTR)
Object type
Payload
Rocket body
Debris
Shape & HBR
Box + 2 Pan, 17.7 m
Radar Cross Section
36.964 m², Large (>1 m²)

Expand to show TLE details & history
Last TLE update: 10 hours ago

TLE from 10 hours ago
0 STARLINK-34632
1 64792U 25150C   26171.42247588  .00001851  00000-0  16282-3 0  9995
2 64792  70.0001 235.3689 0003861 269.8219  90.2498 14.98335438 51904
Epoch: 2026-06-20T10:08Z
TLE epoch observation values (Epoch: 2026-06-20T10:08:21.916Z)
Latitude
0.00004°
Longitude
174.64027°
Altitude
574.476 km
Speed
7.574 km/s
True Right ascension
15h 41m 28s
True Declination
0° 00' 00"
Sunlit
Object was in full shadow at epoch
Visualization orbit readout
Latitude
Unknown
Longitude
Unknown
Altitude
Unknown
Speed
Unknown
Apparent Right ascension
Unknown
Apparent Declination
Unknown
Sunlit
N/A
Visualization observer readout
Local Sidereal Time
07:12:29
Azimuth
Unknown
Elevation
Unknown
Doppler factor
Unknown
Orbital elements
Apogee altitude
572.67 km
Perigee altitude
567.305 km
Semi-major axis
6,948.124 km
Eccentricity
0.00039
Inclination
70.0001°
RAAN
235.3689°
Arg. of periapsis
269.8219°
True anomaly
90.29404°
Mean anomaly
90.2498°
Eccentric anomaly
90.27192°
Mean motion
3.7475 °/min
Orbital period
96.06 mins
BSTAR
0.00016282
Loading maneuver chart data...
Computing Atmospheric mass density...
Loading historical data...
Loading historical data...
Loading historical data...
Loading historical data...
Loading historical data...
Loading historical data...
Loading historical data...

Documentation

Showing up to 5 results
|